CALSPHERE 1 1 00900U 64063C 26106.69528703 .00000507 00000+0 50682-3 0 9998 2 00900 90.2205 70.3247 0027720 114.8071 59.8136 13.76549267 62967 CALSPHERE 2 1 00902U 64063E 26106.66778575 .00000032 00000+0 34382-4 0 9994 2 00902 90.2328 74.3207 0020187 50.0692 123.1483 13.52895116847945 LCS 1 1 01361U 65034C 26106.67622091 .00000013 00000+0 61214-3 0 9997 2 01361 32.1456 323.0779 0013321 263.8081 96.0899 9.89310056203796 TEMPSAT 1 1 01512U 65065E 26106.52792081 .00000012 00000+0 45029-5 0 9997 2 01512 90.0001 212.5815 0071278 62.7548 309.9117 13.33591204951839 CALSPHERE 4A 1 01520U 65065H 26106.54629381 .00000099 00000+0 17473-3 0 9995 2 01520 89.8971 123.1027 0067595 277.7825 249.2732 13.36266594954471 OPS 5712 (P/L 160) 1 02826U 67053A 26106.63476566 .00003930 00000+0 56866-3 0 9995 2 02826 69.9171 189.0568 0002241 232.2181 127.8763 14.76899993 57144 OPS 5712 (P/L 153) 1 02874U 67053H 26106.53916968 -.00000007 00000+0 33405-4 0 9990 2 02874 69.9733 247.4403 0010020 273.8493 86.1467 13.96819308998177 RIGIDSPHERE 2 (LCS 4) 1 05398U 71067E 26106.74079446 .00000469 00000+0 14614-3 0 9999 2 05398 87.6265 355.8702 0062267 77.0927 283.7218 14.37798955865059 COSMOS 2493 (SKRL-756 1) 1 39490U 13078A 26106.26174235 .00001764 00000+0 13293-3 0 9997 2 39490 82.4120 321.7660 0014558 92.9318 267.3573 15.01831351668667 COSMOS 2494 (SKRL-756 2) 1 39491U 13078B 26106.23697070 .00002223 00000+0 15638-3 0 9998 2 39491 82.4101 311.4356 0017638 57.5145 302.7783 15.04488339669498